STARLINK-36532, 67628

Orbit data source: Space-Track

STARLINK-36532, 67628 is a payload satellite owned by SpaceX/Seattle (US) in LEO that was launched on Fri, 30 Jan 2026 UTC via an FALCON 9 launch vehicle from the Air Force Eastern Test Range (AFETR). Payload-class satellites include a variety of spacecraft equipped with specific instruments for various scientific and technological missions. These include communications satellites like Starlink; space stations such as the ISS; scientific satellites like the Hubble; Earth observation satellites from companies like Planet Labs, Umbra, and HawkEye 360; GPS; miniature CubeSats for education and research; and military/defense satellites.

Loading next visibility...
Identifier
67628, 2026-020M
Orbit
LEO
Country
Flag of USUS
Related business
Manufacturer
SpaceX/Seattle
Mission
Operational Commercial Communications
Bus & Motor
STARLINK V2MO, Unknown motor
Mass
575 kg wet, ~530 kg dry
Launch date (UTC)
2026-01-30 (3 months ago)
Launch vehicle
FALCON 9
Launch site
Air Force Eastern Test Range (AFETR)
Object type
Payload
Rocket body
Debris
Shape & HBR
Box + 2 Pan, 17.7 m
Radar Cross Section
36.964 m²

Expand to show TLE details & history
Last TLE update: 10 hours ago

TLE from 10 hours ago
0 STARLINK-36532
1 67628U 26020M   26112.09332782  .00020024  00000-0  73487-3 0  9995
2 67628  42.9994 254.4707 0002647 280.3688  79.6865 15.27593226 12759
Epoch: 2026-04-22T02:14Z
TLE epoch observation values (Epoch: 2026-04-22T02:14:23.523Z)
Latitude
-0.00004°
Longitude
10.71294°
Altitude
482.46 km
Speed
7.626 km/s
True Right ascension
16h 57m 52s
True Declination
0° 00' 00"
Sunlit
Object was in full shadow at epoch
Visualization orbit readout
Latitude
Unknown
Longitude
Unknown
Altitude
Unknown
Speed
Unknown
Apparent Right ascension
Unknown
Apparent Declination
Unknown
Sunlit
N/A
Visualization observer readout
Local Sidereal Time
19:00:12
Azimuth
Unknown
Elevation
Unknown
Doppler factor
Unknown
Orbital elements
Apogee altitude
486.771 km
Perigee altitude
483.138 km
Semi-major axis
6,863.092 km
Eccentricity
0.00026
Inclination
42.9994°
RAAN
254.4707°
Arg. of periapsis
280.3688°
True anomaly
79.71634°
Mean anomaly
79.6865°
Eccentric anomaly
79.70142°
Mean motion
3.81736 °/min
Orbital period
94.31 mins
BSTAR
0.00073487
Loading maneuver chart data...
Computing Atmospheric mass density...
Loading historical data...
Loading historical data...
Loading historical data...
Loading historical data...
Loading historical data...
Loading historical data...
Loading historical data...

Documentation

Showing up to 5 results
|